contact:dominique.lefevre@mio.osupytheas.fr, maurice.libes@osupytheas.fr, didier.mallarino@osupytheas.fr
Project:EMSO http://www.emso-fr.org/EMSO-France
Depth: 2436.0 m
Title:EMSO Ligure Ouest : Data MII capteur MICROCAT
DateTime_Computer,Latitude,Longitude,Temperature,Conductivity,Pressure,DateTime_Instrument
DateTime_Computer,Latitude,Longitude,degC,S m-1,dbar,DateTime_Instrument
2020-10-18T00:13:08Z,42.805,6.029,13.2995,4.60003,2469.993,2020-10-18T02:14:03Z
2020-10-18T00:16:11Z,42.805,6.029,13.2993,4.60003,2469.947,2020-10-18T02:17:06Z
2020-10-18T00:19:15Z,42.805,6.029,13.2993,4.60002,2469.947,2020-10-18T02:20:09Z
2020-10-18T00:22:18Z,42.805,6.029,13.2997,4.60005,2469.947,2020-10-18T02:23:12Z
2020-10-18T00:25:21Z,42.805,6.029,13.2994,4.60013,2469.947,2020-10-18T02:26:15Z
2020-10-18T00:28:24Z,42.805,6.029,13.2999,4.60010,2469.97,2020-10-18T02:29:18Z
2020-10-18T00:31:27Z,42.805,6.029,13.3004,4.60009,2469.97,2020-10-18T02:32:21Z
2020-10-18T00:34:30Z,42.805,6.029,13.2999,4.60014,2469.96,2020-10-18T02:35:24Z
2020-10-18T00:37:33Z,42.805,6.029,13.3003,4.60016,2469.9,2020-10-18T02:38:28Z
2020-10-18T00:40:36Z,42.805,6.029,13.2998,4.60012,2469.96,2020-10-18T02:41:31Z
2020-10-18T00:43:40Z,42.805,6.029,13.2996,4.60015,2469.937,2020-10-18T02:44:34Z
2020-10-18T00:46:43Z,42.805,6.029,13.3003,4.60016,2469.96,2020-10-18T02:47:37Z
2020-10-18T00:49:46Z,42.805,6.029,13.3006,4.60015,2469.937,2020-10-18T02:50:40Z
2020-10-18T00:52:49Z,42.805,6.029,13.3005,4.60016,2469.937,2020-10-18T02:53:43Z
2020-10-18T00:55:52Z,42.805,6.029,13.2999,4.60016,2469.89,2020-10-18T02:56:46Z
2020-10-18T00:58:55Z,42.805,6.029,13.2998,4.60018,2469.89,2020-10-18T02:59:49Z
2020-10-18T01:01:58Z,42.805,6.029,13.2999,4.60010,2469.914,2020-10-18T03:02:53Z
2020-10-18T01:05:01Z,42.805,6.029,13.3014,4.60021,2469.9,2020-10-18T03:05:56Z
2020-10-18T01:08:05Z,42.805,6.029,13.3015,4.60026,2469.89,2020-10-18T03:08:59Z
2020-10-18T01:11:08Z,42.805,6.029,13.3006,4.60032,2469.914,2020-10-18T03:12:02Z
2020-10-18T01:14:11Z,42.805,6.029,13.3009,4.60029,2469.876,2020-10-18T03:15:05Z
2020-10-18T01:17:14Z,42.805,6.029,13.3011,4.60029,2469.9,2020-10-18T03:18:08Z
2020-10-18T01:20:17Z,42.805,6.029,13.3015,4.60026,2469.876,2020-10-18T03:21:11Z
2020-10-18T01:23:20Z,42.805,6.029,13.3007,4.60027,2469.914,2020-10-18T03:24:14Z
2020-10-18T01:26:23Z,42.805,6.029,13.3007,4.60023,2469.9,2020-10-18T03:27:18Z
2020-10-18T01:29:26Z,42.805,6.029,13.3007,4.60031,2469.876,2020-10-18T03:30:21Z
2020-10-18T01:32:30Z,42.805,6.029,13.3012,4.60044,2469.9,2020-10-18T03:33:24Z
2020-10-18T01:35:33Z,42.805,6.029,13.3006,4.60025,2469.876,2020-10-18T03:36:27Z
2020-10-18T01:38:36Z,42.805,6.029,13.2996,4.60019,2469.96,2020-10-18T03:39:30Z
2020-10-18T01:41:39Z,42.805,6.029,13.3011,4.60029,2469.96,2020-10-18T03:42:33Z
2020-10-18T01:44:42Z,42.805,6.029,13.3013,4.60038,2469.89,2020-10-18T03:45:36Z
2020-10-18T01:47:45Z,42.805,6.029,13.3003,4.60041,2469.867,2020-10-18T03:48:39Z
2020-10-18T01:50:48Z,42.805,6.029,13.3016,4.60041,2469.914,2020-10-18T03:51:43Z
2020-10-18T01:53:51Z,42.805,6.029,13.3007,4.60033,2469.876,2020-10-18T03:54:46Z
2020-10-18T01:56:55Z,42.805,6.029,13.3024,4.60025,2469.914,2020-10-18T03:57:49Z
2020-10-18T01:59:58Z,42.805,6.029,13.3009,4.60036,2469.89,2020-10-18T04:00:52Z
2020-10-18T02:03:01Z,42.805,6.029,13.2998,4.60015,2469.937,2020-10-18T04:03:55Z
2020-10-18T02:06:04Z,42.805,6.029,13.2998,4.60014,2469.9,2020-10-18T04:06:58Z
2020-10-18T02:09:07Z,42.805,6.029,13.3006,4.60035,2469.876,2020-10-18T04:10:01Z
2020-10-18T02:12:10Z,42.805,6.029,13.3011,4.60032,2469.909,2020-10-18T04:13:04Z
2020-10-18T02:15:13Z,42.805,6.029,13.3009,4.60041,2469.9,2020-10-18T04:16:07Z
2020-10-18T02:18:16Z,42.805,6.029,13.3011,4.60046,2469.853,2020-10-18T04:19:11Z
2020-10-18T02:21:19Z,42.805,6.029,13.3013,4.60037,2469.9,2020-10-18T04:22:14Z
2020-10-18T02:24:23Z,42.805,6.029,13.3009,4.60033,2469.89,2020-10-18T04:25:17Z
2020-10-18T02:27:26Z,42.805,6.029,13.3010,4.60041,2469.89,2020-10-18T04:28:20Z
2020-10-18T02:30:29Z,42.805,6.029,13.3026,4.60034,2469.89,2020-10-18T04:31:23Z
2020-10-18T02:33:32Z,42.805,6.029,13.3010,4.60017,2469.89,2020-10-18T04:34:26Z
2020-10-18T02:36:35Z,42.805,6.029,13.3018,4.60036,2469.89,2020-10-18T04:37:29Z
2020-10-18T02:39:38Z,42.805,6.029,13.3016,4.60024,2469.876,2020-10-18T04:40:32Z
2020-10-18T02:42:41Z,42.805,6.029,13.3011,4.60041,2469.876,2020-10-18T04:43:36Z
2020-10-18T02:45:44Z,42.805,6.029,13.3009,4.60034,2469.876,2020-10-18T04:46:39Z
2020-10-18T02:48:48Z,42.805,6.029,13.3008,4.60042,2469.876,2020-10-18T04:49:42Z
2020-10-18T02:51:51Z,42.805,6.029,13.3015,4.60038,2469.9,2020-10-18T04:52:45Z
2020-10-18T02:54:54Z,42.805,6.029,13.3012,4.60041,2469.9,2020-10-18T04:55:48Z
2020-10-18T02:57:57Z,42.805,6.029,13.3026,4.60047,2469.853,2020-10-18T04:58:51Z
2020-10-18T03:01:00Z,42.805,6.029,13.2997,4.60011,2469.876,2020-10-18T05:01:54Z
2020-10-18T03:04:03Z,42.805,6.029,13.3004,4.60015,2469.876,2020-10-18T05:04:57Z
2020-10-18T03:07:06Z,42.805,6.029,13.3001,4.60027,2469.9,2020-10-18T05:08:01Z
2020-10-18T03:10:09Z,42.805,6.029,13.3000,4.60013,2469.923,2020-10-18T05:11:04Z
2020-10-18T03:13:13Z,42.805,6.029,13.3005,4.60026,2469.923,2020-10-18T05:14:07Z
2020-10-18T03:16:16Z,42.805,6.029,13.3013,4.60035,2469.914,2020-10-18T05:17:10Z
2020-10-18T03:19:19Z,42.805,6.029,13.3024,4.60027,2469.909,2020-10-18T05:20:13Z
2020-10-18T03:22:22Z,42.805,6.029,13.3003,4.60039,2469.937,2020-10-18T05:23:16Z
2020-10-18T03:25:25Z,42.805,6.029,13.3008,4.60027,2469.9,2020-10-18T05:26:19Z
2020-10-18T03:28:28Z,42.805,6.029,13.2998,4.60028,2469.914,2020-10-18T05:29:22Z
2020-10-18T03:31:31Z,42.805,6.029,13.3000,4.60027,2469.9,2020-10-18T05:32:26Z
2020-10-18T03:34:34Z,42.805,6.029,13.3009,4.60029,2469.97,2020-10-18T05:35:29Z
2020-10-18T03:37:38Z,42.805,6.029,13.3011,4.60031,2469.876,2020-10-18T05:38:32Z
2020-10-18T03:40:41Z,42.805,6.029,13.3009,4.60026,2469.853,2020-10-18T05:41:35Z
2020-10-18T03:43:44Z,42.805,6.029,13.2997,4.60014,2469.923,2020-10-18T05:44:38Z
2020-10-18T03:46:47Z,42.805,6.029,13.2993,4.60013,2469.923,2020-10-18T05:47:41Z
2020-10-18T03:49:50Z,42.805,6.029,13.3012,4.60026,2469.923,2020-10-18T05:50:44Z
2020-10-18T03:52:53Z,42.805,6.029,13.3015,4.60031,2469.923,2020-10-18T05:53:47Z
2020-10-18T03:55:56Z,42.805,6.029,13.3002,4.60039,2469.947,2020-10-18T05:56:51Z
2020-10-18T03:58:59Z,42.805,6.029,13.3000,4.60029,2469.947,2020-10-18T05:59:54Z
2020-10-18T04:02:03Z,42.805,6.029,13.2995,4.60013,2469.937,2020-10-18T06:02:57Z
2020-10-18T04:05:06Z,42.805,6.029,13.3007,4.60031,2469.947,2020-10-18T06:06:00Z
2020-10-18T04:08:09Z,42.805,6.029,13.3000,4.60012,2469.947,2020-10-18T06:09:03Z
2020-10-18T04:11:12Z,42.805,6.029,13.3008,4.60025,2469.947,2020-10-18T06:12:06Z
2020-10-18T04:14:15Z,42.805,6.029,13.3004,4.60019,2469.947,2020-10-18T06:15:09Z
2020-10-18T04:17:18Z,42.805,6.029,13.3011,4.60028,2469.947,2020-10-18T06:18:12Z
2020-10-18T04:20:21Z,42.805,6.029,13.3010,4.60041,2469.96,2020-10-18T06:21:16Z
2020-10-18T04:23:24Z,42.805,6.029,13.3003,4.60015,2469.947,2020-10-18T06:24:19Z
2020-10-18T04:26:28Z,42.805,6.029,13.3004,4.60028,2469.984,2020-10-18T06:27:22Z
2020-10-18T04:29:31Z,42.805,6.029,13.3004,4.60031,2469.97,2020-10-18T06:30:25Z
2020-10-18T04:32:34Z,42.805,6.029,13.3008,4.60033,2469.947,2020-10-18T06:33:28Z
2020-10-18T04:35:37Z,42.805,6.029,13.2995,4.60024,2469.97,2020-10-18T06:36:31Z
2020-10-18T04:38:40Z,42.805,6.029,13.3012,4.60025,2470.017,2020-10-18T06:39:34Z
2020-10-18T04:41:43Z,42.805,6.029,13.3012,4.60019,2469.984,2020-10-18T06:42:37Z
2020-10-18T04:44:46Z,42.805,6.029,13.2996,4.60009,2469.993,2020-10-18T06:45:41Z
2020-10-18T04:47:49Z,42.805,6.029,13.2998,4.60011,2469.993,2020-10-18T06:48:44Z
2020-10-18T04:50:52Z,42.805,6.029,13.2999,4.60014,2470.017,2020-10-18T06:51:47Z
2020-10-18T04:53:56Z,42.805,6.029,13.2996,4.60009,2470.007,2020-10-18T06:54:50Z
2020-10-18T04:56:59Z,42.805,6.029,13.2996,4.60019,2470.053,2020-10-18T06:57:53Z
2020-10-18T05:00:02Z,42.805,6.029,13.3002,4.60014,2470.017,2020-10-18T07:00:56Z
2020-10-18T05:03:05Z,42.805,6.029,13.2993,4.60020,2470.017,2020-10-18T07:03:59Z
2020-10-18T05:06:08Z,42.805,6.029,13.3007,4.60026,2470.04,2020-10-18T07:07:02Z
2020-10-18T05:09:11Z,42.805,6.029,13.2998,4.60020,2469.993,2020-10-18T07:10:05Z
2020-10-18T05:12:14Z,42.805,6.029,13.3004,4.60010,2470.077,2020-10-18T07:13:09Z
2020-10-18T05:15:17Z,42.805,6.029,13.3004,4.60019,2470.077,2020-10-18T07:16:12Z
2020-10-18T05:18:21Z,42.805,6.029,13.3001,4.60026,2470.03,2020-10-18T07:19:15Z
2020-10-18T05:21:24Z,42.805,6.029,13.3011,4.60029,2470.017,2020-10-18T07:22:18Z
2020-10-18T05:24:27Z,42.805,6.029,13.3002,4.60027,2470.03,2020-10-18T07:25:21Z
2020-10-18T05:27:30Z,42.805,6.029,13.3000,4.60023,2470.063,2020-10-18T07:28:24Z
2020-10-18T05:30:33Z,42.805,6.029,13.3000,4.60011,2470.077,2020-10-18T07:31:27Z
2020-10-18T05:33:36Z,42.805,6.029,13.2996,4.60013,2470.04,2020-10-18T07:34:30Z
2020-10-18T05:36:39Z,42.805,6.029,13.3004,4.60024,2470.087,2020-10-18T07:37:34Z
2020-10-18T05:39:42Z,42.805,6.029,13.2996,4.60009,2470.077,2020-10-18T07:40:37Z
2020-10-18T05:42:46Z,42.805,6.029,13.2994,4.60006,2470.124,2020-10-18T07:43:40Z
2020-10-18T05:45:49Z,42.805,6.029,13.2993,4.60008,2470.077,2020-10-18T07:46:43Z
2020-10-18T05:48:52Z,42.805,6.029,13.2999,4.60019,2470.1,2020-10-18T07:49:46Z
2020-10-18T05:51:55Z,42.805,6.029,13.2991,4.60003,2470.11,2020-10-18T07:52:49Z
2020-10-18T05:54:58Z,42.805,6.029,13.2993,4.60003,2470.147,2020-10-18T07:55:52Z
2020-10-18T05:58:01Z,42.805,6.029,13.2996,4.60006,2470.133,2020-10-18T07:58:55Z
2020-10-18T06:01:04Z,42.805,6.029,13.2995,4.60021,2470.147,2020-10-18T08:01:59Z
2020-10-18T06:04:07Z,42.805,6.029,13.2992,4.60008,2470.133,2020-10-18T08:05:02Z
2020-10-18T06:07:11Z,42.805,6.029,13.2991,4.60003,2470.11,2020-10-18T08:08:05Z
2020-10-18T06:10:14Z,42.805,6.029,13.3001,4.60024,2470.087,2020-10-18T08:11:08Z
2020-10-18T06:13:17Z,42.805,6.029,13.2993,4.60015,2470.156,2020-10-18T08:14:11Z
2020-10-18T06:16:20Z,42.805,6.029,13.2992,4.60007,2470.171,2020-10-18T08:17:14Z
2020-10-18T06:19:23Z,42.805,6.029,13.2996,4.60002,2470.156,2020-10-18T08:20:17Z
2020-10-18T06:22:26Z,42.805,6.029,13.3000,4.60023,2470.124,2020-10-18T08:23:20Z
2020-10-18T06:25:29Z,42.805,6.029,13.2995,4.60008,2470.147,2020-10-18T08:26:24Z
2020-10-18T06:28:32Z,42.805,6.029,13.3000,4.60020,2470.171,2020-10-18T08:29:27Z
2020-10-18T06:31:36Z,42.805,6.029,13.2991,4.60018,2470.133,2020-10-18T08:32:30Z
2020-10-18T06:34:39Z,42.805,6.029,13.2994,4.60025,2470.133,2020-10-18T08:35:33Z
2020-10-18T06:37:42Z,42.805,6.029,13.3006,4.60023,2470.156,2020-10-18T08:38:36Z
2020-10-18T06:40:45Z,42.805,6.029,13.2993,4.60004,2470.124,2020-10-18T08:41:39Z
2020-10-18T06:43:48Z,42.805,6.029,13.2993,4.60007,2470.194,2020-10-18T08:44:42Z
2020-10-18T06:46:51Z,42.805,6.029,13.2999,4.60020,2470.18,2020-10-18T08:47:45Z
2020-10-18T06:49:54Z,42.805,6.029,13.2996,4.60013,2470.166,2020-10-18T08:50:49Z
2020-10-18T06:52:57Z,42.805,6.029,13.2993,4.60003,2470.156,2020-10-18T08:53:52Z
2020-10-18T06:56:01Z,42.805,6.029,13.2996,4.60014,2470.18,2020-10-18T08:56:55Z
2020-10-18T06:59:04Z,42.805,6.029,13.2996,4.60003,2470.194,2020-10-18T08:59:58Z
2020-10-18T07:02:07Z,42.805,6.029,13.2990,4.60002,2470.203,2020-10-18T09:03:01Z
2020-10-18T07:05:10Z,42.805,6.029,13.2994,4.60004,2470.194,2020-10-18T09:06:04Z
2020-10-18T07:08:13Z,42.805,6.029,13.2988,4.60009,2470.18,2020-10-18T09:09:07Z
2020-10-18T07:11:16Z,42.805,6.029,13.2996,4.60008,2470.194,2020-10-18T09:12:10Z
2020-10-18T07:14:19Z,42.805,6.029,13.3000,4.60016,2470.171,2020-10-18T09:15:14Z
2020-10-18T07:17:22Z,42.805,6.029,13.2991,4.60001,2470.217,2020-10-18T09:18:17Z
2020-10-18T07:20:26Z,42.805,6.029,13.2999,4.60009,2470.217,2020-10-18T09:21:20Z
2020-10-18T07:23:29Z,42.805,6.029,13.2993,4.60007,2470.194,2020-10-18T09:24:23Z
2020-10-18T07:26:32Z,42.805,6.029,13.2994,4.60016,2470.166,2020-10-18T09:27:26Z
2020-10-18T07:29:35Z,42.805,6.029,13.2995,4.60003,2470.18,2020-10-18T09:30:29Z
2020-10-18T07:32:38Z,42.805,6.029,13.2990,4.60003,2470.18,2020-10-18T09:33:32Z
2020-10-18T07:35:41Z,42.805,6.029,13.2990,4.60001,2470.203,2020-10-18T09:36:35Z
2020-10-18T07:38:44Z,42.805,6.029,13.2990,4.60004,2470.217,2020-10-18T09:39:39Z
2020-10-18T07:41:47Z,42.805,6.029,13.2993,4.60003,2470.203,2020-10-18T09:42:42Z
2020-10-18T07:44:50Z,42.805,6.029,13.2992,4.60004,2470.18,2020-10-18T09:45:45Z
2020-10-18T07:47:54Z,42.805,6.029,13.2986,4.59997,2470.203,2020-10-18T09:48:48Z
2020-10-18T07:50:57Z,42.805,6.029,13.2986,4.59999,2470.194,2020-10-18T09:51:51Z
2020-10-18T07:54:00Z,42.805,6.029,13.2990,4.59999,2470.203,2020-10-18T09:54:54Z
2020-10-18T07:57:03Z,42.805,6.029,13.2988,4.60001,2470.18,2020-10-18T09:57:57Z
2020-10-18T08:00:06Z,42.805,6.029,13.2998,4.60003,2470.217,2020-10-18T10:01:00Z
2020-10-18T08:03:09Z,42.805,6.029,13.2986,4.59998,2470.171,2020-10-18T10:04:03Z
2020-10-18T08:06:12Z,42.805,6.029,13.2994,4.60002,2470.203,2020-10-18T10:07:07Z
2020-10-18T08:09:15Z,42.805,6.029,13.2990,4.59997,2470.194,2020-10-18T10:10:10Z
2020-10-18T08:12:19Z,42.805,6.029,13.2990,4.59996,2470.203,2020-10-18T10:13:13Z
2020-10-18T08:15:22Z,42.805,6.029,13.2991,4.59999,2470.18,2020-10-18T10:16:16Z
2020-10-18T08:18:25Z,42.805,6.029,13.2989,4.60000,2470.203,2020-10-18T10:19:19Z
2020-10-18T08:21:28Z,42.805,6.029,13.2986,4.59997,2470.194,2020-10-18T10:22:22Z
2020-10-18T08:24:31Z,42.805,6.029,13.2988,4.60006,2470.203,2020-10-18T10:25:25Z
2020-10-18T08:27:34Z,42.805,6.029,13.2991,4.60001,2470.217,2020-10-18T10:28:29Z
2020-10-18T08:30:37Z,42.805,6.029,13.2989,4.60003,2470.217,2020-10-18T10:31:32Z
2020-10-18T08:33:41Z,42.805,6.029,13.2997,4.60009,2470.227,2020-10-18T10:34:35Z
2020-10-18T08:36:44Z,42.805,6.029,13.2988,4.60011,2470.24,2020-10-18T10:37:38Z
2020-10-18T08:39:47Z,42.805,6.029,13.2990,4.59995,2470.171,2020-10-18T10:40:41Z
2020-10-18T08:42:50Z,42.805,6.029,13.2995,4.59997,2470.194,2020-10-18T10:43:44Z
2020-10-18T08:45:53Z,42.805,6.029,13.2994,4.59999,2470.18,2020-10-18T10:46:47Z
2020-10-18T08:48:56Z,42.805,6.029,13.2986,4.59993,2470.203,2020-10-18T10:49:50Z
2020-10-18T08:51:59Z,42.805,6.029,13.2990,4.60009,2470.18,2020-10-18T10:52:54Z
2020-10-18T08:55:02Z,42.805,6.029,13.2987,4.59997,2470.156,2020-10-18T10:55:57Z
2020-10-18T08:58:06Z,42.805,6.029,13.2991,4.59997,2470.203,2020-10-18T10:59:00Z
2020-10-18T09:01:09Z,42.805,6.029,13.2990,4.59996,2470.18,2020-10-18T11:02:03Z
2020-10-18T09:04:12Z,42.805,6.029,13.2989,4.59996,2470.18,2020-10-18T11:05:06Z
2020-10-18T09:07:15Z,42.805,6.029,13.2989,4.59996,2470.194,2020-10-18T11:08:09Z
2020-10-18T09:10:18Z,42.805,6.029,13.2992,4.60001,2470.217,2020-10-18T11:11:12Z
2020-10-18T09:13:21Z,42.805,6.029,13.2987,4.59995,2470.203,2020-10-18T11:14:15Z
2020-10-18T09:16:24Z,42.805,6.029,13.2984,4.59999,2470.203,2020-10-18T11:17:19Z
2020-10-18T09:19:27Z,42.805,6.029,13.2992,4.60001,2470.217,2020-10-18T11:20:22Z
2020-10-18T09:22:31Z,42.805,6.029,13.2991,4.59994,2470.203,2020-10-18T11:23:25Z
2020-10-18T09:25:34Z,42.805,6.029,13.2989,4.60005,2470.217,2020-10-18T11:26:28Z
2020-10-18T09:28:37Z,42.805,6.029,13.2987,4.59996,2470.194,2020-10-18T11:29:31Z
2020-10-18T09:31:40Z,42.805,6.029,13.2987,4.60001,2470.18,2020-10-18T11:32:34Z
2020-10-18T09:34:43Z,42.805,6.029,13.2991,4.60003,2470.194,2020-10-18T11:35:37Z
2020-10-18T09:37:46Z,42.805,6.029,13.2991,4.60005,2470.18,2020-10-18T11:38:40Z
2020-10-18T09:40:49Z,42.805,6.029,13.2992,4.59999,2470.171,2020-10-18T11:41:44Z
2020-10-18T09:43:52Z,42.805,6.029,13.2988,4.59993,2470.217,2020-10-18T11:44:47Z
2020-10-18T09:46:56Z,42.805,6.029,13.2991,4.59997,2470.194,2020-10-18T11:47:50Z
2020-10-18T09:49:59Z,42.805,6.029,13.2987,4.60006,2470.203,2020-10-18T11:50:53Z
2020-10-18T09:53:02Z,42.805,6.029,13.2990,4.59994,2470.194,2020-10-18T11:53:56Z
2020-10-18T09:56:05Z,42.805,6.029,13.2988,4.60000,2470.171,2020-10-18T11:56:59Z
2020-10-18T09:59:08Z,42.805,6.029,13.2984,4.60003,2470.203,2020-10-18T12:00:02Z
2020-10-18T10:02:11Z,42.805,6.029,13.2994,4.60001,2470.18,2020-10-18T12:03:06Z
2020-10-18T10:05:14Z,42.805,6.029,13.2990,4.59996,2470.194,2020-10-18T12:06:09Z
2020-10-18T10:08:17Z,42.805,6.029,13.2991,4.60006,2470.194,2020-10-18T12:09:12Z
2020-10-18T10:11:21Z,42.805,6.029,13.2985,4.59996,2470.156,2020-10-18T12:12:15Z
2020-10-18T10:14:24Z,42.805,6.029,13.2995,4.60011,2470.156,2020-10-18T12:15:18Z
2020-10-18T10:17:27Z,42.805,6.029,13.2994,4.60009,2470.171,2020-10-18T12:18:21Z
2020-10-18T10:20:30Z,42.805,6.029,13.2998,4.60013,2470.156,2020-10-18T12:21:24Z
2020-10-18T10:23:33Z,42.805,6.029,13.2998,4.60002,2470.18,2020-10-18T12:24:27Z
2020-10-18T10:26:36Z,42.805,6.029,13.2988,4.59993,2470.171,2020-10-18T12:27:31Z
2020-10-18T10:29:39Z,42.805,6.029,13.2989,4.59996,2470.156,2020-10-18T12:30:34Z
2020-10-18T10:32:42Z,42.805,6.029,13.2985,4.59992,2470.147,2020-10-18T12:33:37Z
2020-10-18T10:35:46Z,42.805,6.029,13.2988,4.59995,2470.147,2020-10-18T12:36:40Z
2020-10-18T10:38:49Z,42.805,6.029,13.2987,4.59991,2470.203,2020-10-18T12:39:43Z
2020-10-18T10:41:52Z,42.805,6.029,13.2986,4.59994,2470.156,2020-10-18T12:42:46Z
2020-10-18T10:44:55Z,42.805,6.029,13.2989,4.59994,2470.171,2020-10-18T12:45:49Z
2020-10-18T10:47:58Z,42.805,6.029,13.2983,4.59997,2470.156,2020-10-18T12:48:52Z
2020-10-18T10:51:01Z,42.805,6.029,13.2987,4.59994,2470.147,2020-10-18T12:51:56Z
2020-10-18T10:54:04Z,42.805,6.029,13.2983,4.59994,2470.147,2020-10-18T12:54:59Z
2020-10-18T10:57:07Z,42.805,6.029,13.2990,4.59999,2470.156,2020-10-18T12:58:02Z
2020-10-18T11:00:11Z,42.805,6.029,13.2986,4.59996,2470.156,2020-10-18T13:01:05Z
2020-10-18T11:03:14Z,42.805,6.029,13.2982,4.59995,2470.147,2020-10-18T13:04:08Z
2020-10-18T11:06:17Z,42.805,6.029,13.2990,4.59995,2470.124,2020-10-18T13:07:11Z
2020-10-18T11:09:20Z,42.805,6.029,13.2983,4.59991,2470.156,2020-10-18T13:10:14Z
2020-10-18T11:12:23Z,42.805,6.029,13.2988,4.59999,2470.133,2020-10-18T13:13:17Z
2020-10-18T11:15:26Z,42.805,6.029,13.2991,4.59997,2470.133,2020-10-18T13:16:21Z
2020-10-18T11:18:29Z,42.805,6.029,13.2988,4.59998,2470.147,2020-10-18T13:19:24Z
2020-10-18T11:21:32Z,42.805,6.029,13.2983,4.59996,2470.11,2020-10-18T13:22:27Z
2020-10-18T11:24:36Z,42.805,6.029,13.2991,4.59995,2470.11,2020-10-18T13:25:30Z
2020-10-18T11:27:39Z,42.805,6.029,13.2990,4.59991,2470.11,2020-10-18T13:28:33Z
2020-10-18T11:30:42Z,42.805,6.029,13.2990,4.59994,2470.087,2020-10-18T13:31:36Z
2020-10-18T11:33:45Z,42.805,6.029,13.2990,4.59999,2470.124,2020-10-18T13:34:39Z
2020-10-18T11:36:48Z,42.805,6.029,13.2992,4.59994,2470.124,2020-10-18T13:37:42Z
2020-10-18T11:39:51Z,42.805,6.029,13.2989,4.59992,2470.087,2020-10-18T13:40:46Z
2020-10-18T11:42:54Z,42.805,6.029,13.2983,4.59993,2470.096,2020-10-18T13:43:49Z
2020-10-18T11:45:58Z,42.805,6.029,13.2990,4.59995,2470.1,2020-10-18T13:46:52Z
2020-10-18T11:49:01Z,42.805,6.029,13.2991,4.59998,2470.124,2020-10-18T13:49:55Z
2020-10-18T11:52:04Z,42.805,6.029,13.2989,4.59999,2470.1,2020-10-18T13:52:58Z
2020-10-18T11:55:07Z,42.805,6.029,13.2991,4.60004,2470.087,2020-10-18T13:56:01Z
2020-10-18T11:58:10Z,42.805,6.029,13.2984,4.59991,2470.11,2020-10-18T13:59:04Z
2020-10-18T12:01:13Z,42.805,6.029,13.2985,4.60003,2470.087,2020-10-18T14:02:07Z
2020-10-18T12:04:16Z,42.805,6.029,13.2989,4.60001,2470.1,2020-10-18T14:05:11Z
2020-10-18T12:07:19Z,42.805,6.029,13.2983,4.60006,2470.087,2020-10-18T14:08:14Z
2020-10-18T12:10:23Z,42.805,6.029,13.2992,4.60007,2470.1,2020-10-18T14:11:17Z
2020-10-18T12:13:26Z,42.805,6.029,13.2984,4.59992,2470.087,2020-10-18T14:14:20Z
2020-10-18T12:16:29Z,42.805,6.029,13.2986,4.59991,2470.1,2020-10-18T14:17:23Z
2020-10-18T12:19:32Z,42.805,6.029,13.2988,4.59994,2470.087,2020-10-18T14:20:26Z
2020-10-18T12:22:35Z,42.805,6.029,13.2988,4.59993,2470.087,2020-10-18T14:23:29Z
2020-10-18T12:25:38Z,42.805,6.029,13.2991,4.59999,2470.11,2020-10-18T14:26:32Z
2020-10-18T12:28:41Z,42.805,6.029,13.2990,4.60002,2470.077,2020-10-18T14:29:36Z
2020-10-18T12:31:44Z,42.805,6.029,13.2993,4.60011,2470.063,2020-10-18T14:32:39Z
2020-10-18T12:34:48Z,42.805,6.029,13.2989,4.60011,2470.087,2020-10-18T14:35:42Z
2020-10-18T12:37:51Z,42.805,6.029,13.2990,4.59995,2470.063,2020-10-18T14:38:45Z
2020-10-18T12:40:54Z,42.805,6.029,13.2985,4.59997,2470.063,2020-10-18T14:41:48Z
2020-10-18T12:43:57Z,42.805,6.029,13.2990,4.60005,2470.087,2020-10-18T14:44:51Z
2020-10-18T12:47:00Z,42.805,6.029,13.2986,4.59993,2470.017,2020-10-18T14:47:54Z
2020-10-18T12:50:03Z,42.805,6.029,13.2986,4.59993,2470.04,2020-10-18T14:50:57Z
2020-10-18T12:53:06Z,42.805,6.029,13.2990,4.60006,2470.063,2020-10-18T14:54:01Z
2020-10-18T12:56:09Z,42.805,6.029,13.2994,4.60011,2470.063,2020-10-18T14:57:04Z
2020-10-18T12:59:13Z,42.805,6.029,13.2995,4.60005,2470.04,2020-10-18T15:00:07Z
2020-10-18T13:02:16Z,42.805,6.029,13.2995,4.60008,2470.04,2020-10-18T15:03:10Z
2020-10-18T13:05:19Z,42.805,6.029,13.2988,4.60001,2470.04,2020-10-18T15:06:13Z
2020-10-18T13:08:22Z,42.805,6.029,13.2988,4.59997,2470.04,2020-10-18T15:09:16Z
2020-10-18T13:11:25Z,42.805,6.029,13.2990,4.60000,2470.017,2020-10-18T15:12:19Z
2020-10-18T13:14:28Z,42.805,6.029,13.2996,4.60003,2470.04,2020-10-18T15:15:22Z
2020-10-18T13:17:31Z,42.805,6.029,13.2987,4.60008,2470.077,2020-10-18T15:18:26Z
2020-10-18T13:20:35Z,42.805,6.029,13.2993,4.60003,2470.04,2020-10-18T15:21:29Z
2020-10-18T13:23:38Z,42.805,6.029,13.2987,4.59998,2470.026,2020-10-18T15:24:32Z
2020-10-18T13:26:41Z,42.805,6.029,13.2991,4.59997,2470.063,2020-10-18T15:27:35Z
2020-10-18T13:29:44Z,42.805,6.029,13.2993,4.60011,2470.053,2020-10-18T15:30:38Z
2020-10-18T13:32:47Z,42.805,6.029,13.2991,4.60010,2470.04,2020-10-18T15:33:41Z
2020-10-18T13:35:50Z,42.805,6.029,13.2987,4.59999,2470.04,2020-10-18T15:36:44Z
2020-10-18T13:38:53Z,42.805,6.029,13.2995,4.60007,2470.063,2020-10-18T15:39:48Z
2020-10-18T13:41:56Z,42.805,6.029,13.2991,4.60011,2470.03,2020-10-18T15:42:51Z
2020-10-18T13:45:00Z,42.805,6.029,13.2996,4.59999,2470.04,2020-10-18T15:45:54Z
2020-10-18T13:48:03Z,42.805,6.029,13.2985,4.60003,2470.03,2020-10-18T15:48:57Z
2020-10-18T13:51:06Z,42.805,6.029,13.2997,4.60014,2470.04,2020-10-18T15:52:00Z
2020-10-18T13:54:09Z,42.805,6.029,13.2990,4.60003,2470.03,2020-10-18T15:55:03Z
2020-10-18T13:57:12Z,42.805,6.029,13.2996,4.60005,2470.017,2020-10-18T15:58:06Z
2020-10-18T14:00:15Z,42.805,6.029,13.2986,4.59996,2470.053,2020-10-18T16:01:09Z
2020-10-18T14:03:18Z,42.805,6.029,13.2986,4.59994,2470.053,2020-10-18T16:04:13Z
2020-10-18T14:06:21Z,42.805,6.029,13.2996,4.60020,2470.04,2020-10-18T16:07:16Z
2020-10-18T14:09:25Z,42.805,6.029,13.2999,4.60011,2470.017,2020-10-18T16:10:19Z
2020-10-18T14:12:28Z,42.805,6.029,13.2996,4.59999,2470.04,2020-10-18T16:13:22Z
2020-10-18T14:15:31Z,42.805,6.029,13.2990,4.59998,2470.017,2020-10-18T16:16:25Z
2020-10-18T14:18:34Z,42.805,6.029,13.2993,4.60006,2470.04,2020-10-18T16:19:28Z
2020-10-18T14:21:37Z,42.805,6.029,13.2998,4.60013,2470.017,2020-10-18T16:22:31Z
2020-10-18T14:24:40Z,42.805,6.029,13.3000,4.60010,2470.04,2020-10-18T16:25:35Z
2020-10-18T14:27:43Z,42.805,6.029,13.2993,4.60018,2470.017,2020-10-18T16:28:38Z
2020-10-18T14:30:46Z,42.805,6.029,13.3000,4.60016,2470.053,2020-10-18T16:31:41Z
2020-10-18T14:33:50Z,42.805,6.029,13.2990,4.60007,2470.04,2020-10-18T16:34:44Z
2020-10-18T14:36:53Z,42.805,6.029,13.2989,4.60006,2470.04,2020-10-18T16:37:47Z
2020-10-18T14:39:56Z,42.805,6.029,13.2998,4.60017,2469.993,2020-10-18T16:40:50Z
2020-10-18T14:42:59Z,42.805,6.029,13.2991,4.60012,2470.03,2020-10-18T16:43:53Z
2020-10-18T14:46:02Z,42.805,6.029,13.3000,4.60004,2470.04,2020-10-18T16:46:56Z
2020-10-18T14:49:05Z,42.805,6.029,13.2993,4.60005,2470.017,2020-10-18T16:50:00Z
2020-10-18T14:52:08Z,42.805,6.029,13.2987,4.60001,2470.053,2020-10-18T16:53:03Z
2020-10-18T14:55:11Z,42.805,6.029,13.2993,4.60001,2470.03,2020-10-18T16:56:06Z
2020-10-18T14:58:15Z,42.805,6.029,13.2997,4.60015,2470.007,2020-10-18T16:59:09Z
2020-10-18T15:01:18Z,42.805,6.029,13.2995,4.60017,2470.04,2020-10-18T17:02:12Z
2020-10-18T15:04:21Z,42.805,6.029,13.2998,4.60015,2469.993,2020-10-18T17:05:15Z
2020-10-18T15:07:24Z,42.805,6.029,13.2995,4.60024,2470.017,2020-10-18T17:08:18Z
2020-10-18T15:10:27Z,42.805,6.029,13.2992,4.60016,2470.017,2020-10-18T17:11:21Z
2020-10-18T15:13:30Z,42.805,6.029,13.2999,4.60014,2470.03,2020-10-18T17:14:25Z